Imperial, CA

7:20 AM PST on January 21, 2018 (GMT -0800)
Imperial County

Weather History for KIPL - October, 2011

Change the Weather History Date:

Monday, October 17, 2011

  Actual Average Record
Temperature  
Mean Temperature 84 °F -  
Max Temperature 100 °F 89 °F 115 °F (2000)
Min Temperature 68 °F 60 °F 43 °F (1998)
Cooling Degree Days 19    
Growing Degree Days 34 (Base 50)    
Moisture  
Dew Point 45 °F    
Average Humidity 29    
Maximum Humidity 49    
Minimum Humidity 13    
Precipitation  
Precipitation 0.00 in - - ()
Sea Level Pressure  
Sea Level Pressure 29.89 in    
Wind  
Wind Speed 4 mph (WNW)    
Max Wind Speed 8 mph    
Max Gust Speed -    
Visibility 10 miles    
Events      
Averages and records for this station are not official NWS values.
T = Trace of Precipitation, MM = Missing Value Source: NWS Daily Summary

Daily Weather History Graph

Daily Weather History Graph

Search for Another Location

Airport or City:

Trip Planner

Search our weather history database for the weather conditions in past years. The results will help you decide how hot, cold, wet, or windy it might be!

Date:

Astronomy

Oct. 17, 2011 Rise Set
Actual Time 6:47 AM PDT 6:07 PM PDT
Civil Twilight 6:22 AM PDT 6:31 PM PDT
Nautical Twilight 5:54 AM PDT 7:00 PM PDT
Astronomical Twilight 5:25 AM PDT 7:29 PM PDT
Moon 10:04 PM PDT (10/17) 11:44 AM PDT (10/17)
Length of Visible Light 12h 09m
Length of Day
11h 19m
Waning Gibbous, 73% of the Moon is Illuminated
Oct 17
Waning Gibbous
Oct 19
Last Quarter
Oct 26
New
Nov 2
First Quarter
Nov 10
Full

Hourly Weather History & Observations

Time (PDT) Temp. Dew Point Humidity Pressure Visibility Wind Dir Wind Speed Gust Speed Precip Events Conditions
12:53 AM 75.0 °F 50.0 °F 41% 29.89 in 10.0 mi West 3.5 mph - N/A   Clear
1:53 AM 73.0 °F 50.0 °F 44% 29.89 in 10.0 mi WSW 6.9 mph - N/A   Clear
3:53 AM 72.0 °F 46.9 °F 41% 29.88 in 10.0 mi Calm Calm - N/A   Clear
4:53 AM 70.0 °F 48.9 °F 47% 29.89 in 10.0 mi Calm Calm - N/A   Clear
5:53 AM 68.0 °F 48.0 °F 49% 29.89 in 10.0 mi SW 6.9 mph - N/A   Clear
6:53 AM 68.0 °F 44.6 °F 43% 29.90 in 10.0 mi NW 3.5 mph - N/A   Clear
7:53 AM 73.0 °F 46.9 °F 39% 29.93 in 10.0 mi Calm Calm - N/A   Clear
8:53 AM 80.1 °F 48.9 °F 34% 29.95 in 10.0 mi NW 3.5 mph - N/A   Clear
9:53 AM 89.1 °F 50.0 °F 26% 29.96 in 10.0 mi NW 6.9 mph - N/A   Clear
10:53 AM 91.4 °F 48.2 °F 23% 29.95 in 10.0 mi NW 8.1 mph - N/A   Clear
11:53 AM 96.1 °F 44.1 °F 17% 29.94 in 10.0 mi NW 8.1 mph - N/A   Clear
12:53 PM 97.0 °F 42.1 °F 15% 29.91 in 10.0 mi NNW 6.9 mph - N/A   Clear
1:53 PM 99.0 °F 43.0 °F 15% 29.89 in 10.0 mi NNW 8.1 mph - N/A   Clear
2:53 PM 100.0 °F 39.9 °F 13% 29.87 in 10.0 mi Variable 3.5 mph - N/A   Clear
3:53 PM 100.0 °F 39.9 °F 13% 29.86 in 10.0 mi WNW 5.8 mph - N/A   Partly Cloudy
4:53 PM 99.0 °F 39.9 °F 13% 29.86 in 10.0 mi NW 4.6 mph - N/A   Clear
5:53 PM 95.0 °F 42.8 °F 16% 29.85 in 10.0 mi NW 3.5 mph - N/A   Partly Cloudy
6:53 PM 84.0 °F 48.0 °F 28% 29.86 in 10.0 mi WNW 3.5 mph - N/A   Clear
7:53 PM 81.0 °F 46.0 °F 29% 29.86 in 10.0 mi West 4.6 mph - N/A   Clear
8:53 PM 78.1 °F 46.0 °F 32% 29.87 in 10.0 mi West 6.9 mph - N/A   Clear
9:53 PM 80.1 °F 41.0 °F 25% 29.88 in 10.0 mi West 4.6 mph - N/A   Clear
10:53 PM 79.0 °F 42.1 °F 27% 29.90 in 10.0 mi Calm Calm - N/A   Clear
11:53 PM 73.9 °F 43.0 °F 33% 29.89 in 10.0 mi Calm Calm - N/A   Clear